Mansfield, OH

3:10 PM EDT on June 25, 2017 (GMT -0400)
Mansfield Lahm Regional

Weather History for KMFD - April, 2013

Change the Weather History Date:

Monday, April 15, 2013

  Actual Average Record
Temperature  
Mean Temperature 58 °F 49 °F  
Max Temperature 67 °F 59 °F 82 °F (2010)
Min Temperature 49 °F 38 °F 15 °F (1957)
Degree Days  
Heating Degree Days 7 16  
Month to date heating degree days 282 288  
Since 1 July heating degree days 5630 5778  
Cooling Degree Days 0 0  
Month to date cooling degree days 0 0  
Year to date cooling degree days 0 1  
Growing Degree Days 8 (Base 50)    
Moisture  
Dew Point 45 °F    
Average Humidity 64    
Maximum Humidity 72    
Minimum Humidity 56    
Precipitation  
Precipitation 0.00 in 0.14 in 0.82 in (1993)
Month to date precipitation 2.59 2.10  
Year to date precipitation 9.27 10.75  
Snow  
Snow 0.00 in 0.10 in - ()
Month to date snowfall 0.0 1.9  
Since 1 July snowfall 39.3 47.6  
Snow Depth 0.00 in    
Sea Level Pressure  
Sea Level Pressure 29.98 in    
Wind  
Wind Speed 13 mph (SSE)    
Max Wind Speed 21 mph    
Max Gust Speed 28 mph    
Visibility 10 miles    
Events      
T = Trace of Precipitation, MM = Missing Value Source: NWS Daily Summary

Daily Weather History Graph

Daily Weather History Graph

Search for Another Location

Airport or City:

Trip Planner

Search our weather history database for the weather conditions in past years. The results will help you decide how hot, cold, wet, or windy it might be!

Date:

Astronomy

Apr. 15, 2013 Rise Set
Actual Time 6:50 AM EDT 8:09 PM EDT
Civil Twilight 6:22 AM EDT 8:38 PM EDT
Nautical Twilight 5:48 AM EDT 9:12 PM EDT
Astronomical Twilight 5:12 AM EDT 9:48 PM EDT
Moon 10:14 AM EDT (4/15) 12:22 AM EDT (4/15)
Length of Visible Light 14h 16m
Length of Day
13h 19m
Waxing Crescent, 24% of the Moon is Illuminated
Apr 15
Waxing Crescent
Apr 18
First Quarter
Apr 25
Full
May 2
Last Quarter
May 9
New

Hourly Weather History & Observations

Time (EDT) Temp. Dew Point Humidity Pressure Visibility Wind Dir Wind Speed Gust Speed Precip Events Conditions
12:52 AM 52.0 °F 37.9 °F 59% 29.94 in 10.0 mi SE 10.4 mph - N/A   Clear
1:52 AM 52.0 °F 37.0 °F 57% 29.94 in 10.0 mi SSE 8.1 mph - N/A   Clear
2:52 AM 50.0 °F 37.0 °F 61% 29.93 in 10.0 mi SE 8.1 mph - N/A   Clear
3:52 AM 50.0 °F 37.0 °F 61% 29.94 in 10.0 mi SSE 9.2 mph - N/A   Clear
4:52 AM 50.0 °F 37.0 °F 61% 29.96 in 10.0 mi SSE 9.2 mph - N/A   Clear
5:52 AM 50.0 °F 37.0 °F 61% 29.97 in 10.0 mi SSE 9.2 mph - N/A   Clear
6:52 AM 50.0 °F 37.0 °F 61% 30.00 in 10.0 mi South 8.1 mph - N/A   Clear
7:52 AM 54.0 °F 41.0 °F 62% 30.01 in 10.0 mi South 9.2 mph - N/A   Clear
8:52 AM 59.0 °F 45.0 °F 60% 30.02 in 10.0 mi South 13.8 mph - N/A   Clear
9:52 AM 61.0 °F 46.0 °F 58% 30.00 in 10.0 mi SSE 18.4 mph 25.3 mph N/A   Clear
10:52 AM 63.0 °F 46.9 °F 56% 30.03 in 10.0 mi South 16.1 mph 23.0 mph N/A   Clear
11:52 AM 63.0 °F 48.9 °F 60% 30.01 in 10.0 mi South 13.8 mph 24.2 mph N/A   Scattered Clouds
12:52 PM 63.0 °F 48.0 °F 58% 30.02 in 10.0 mi South 13.8 mph 21.9 mph N/A   Overcast
1:52 PM 63.0 °F 48.9 °F 60% 30.02 in - South 17.3 mph - N/A   Overcast
2:52 PM 64.9 °F 50.0 °F 58% 30.01 in 10.0 mi South 12.7 mph 19.6 mph N/A   Mostly Cloudy
3:52 PM 66.0 °F 50.0 °F 56% 29.99 in 10.0 mi SSE 13.8 mph - N/A   Mostly Cloudy
4:52 PM 66.0 °F 51.1 °F 59% 29.98 in 10.0 mi South 12.7 mph - N/A   Overcast
5:52 PM 66.0 °F 51.1 °F 59% 29.98 in 10.0 mi SSE 15.0 mph - N/A   Mostly Cloudy
6:52 PM 66.0 °F 51.1 °F 59% 29.97 in 10.0 mi South 15.0 mph 23.0 mph N/A   Partly Cloudy
7:52 PM 62.1 °F 51.1 °F 67% 29.97 in 10.0 mi SSE 15.0 mph - N/A   Partly Cloudy
8:52 PM 61.0 °F 51.1 °F 70% 29.96 in 10.0 mi SSE 13.8 mph - N/A   Clear
9:52 PM 61.0 °F 51.1 °F 70% 29.99 in 10.0 mi SSE 13.8 mph - N/A   Clear
10:52 PM 60.1 °F 50.0 °F 69% 29.99 in 10.0 mi SSE 16.1 mph - N/A   Clear
11:52 PM 59.0 °F 50.0 °F 72% 29.99 in 10.0 mi SSE 15.0 mph - N/A   Clear